Regional Weather Roundup
Issued by NWS

Home | Current Version | Previous Version | Graphics & Text | Print | Product List | Glossary On
Versions: 1 2 3 4 5 6 7 8 9 10 11 12 13 14 15 16 17 18 19 20 21 22 23 24 25 26 27 28 29 30 31 32 33 34 35 36 37 38 39 40 41 42 43 44 45 46 47 48 49 50
861
ASUS44 KMEG 241900
RWRTN
TENNESSEE HOURLY STATE WEATHER ROUNDUP
NATIONAL WEATHER SERVICE MEMPHIS TN
200 PM CDT FRI MAR 24 2017

TNZ002-004-019-021-049-052-054-088>092-242000-
WEST TENNESSEE

CITY           SKY/WX    TMP DP  RH WIND       PRES   REMARKS
MEMPHIS INTL   CLOUDY    77  58  51 S25G37    30.14F
NWS MEMPHIS      N/A     76 N/A N/A MISG        N/A
JACKSON        CLOUDY    74  57  55 S16G25    30.18F
DYERSBURG      CLOUDY    73  59  61 S15       30.15F
PARIS          CLOUDY    72  54  53 S16       30.18F
$$

TNZ008-025-027-028-033-062-065-066-242000-
NORTH MIDDLE TENNESSEE

CITY           SKY/WX    TMP DP  RH WIND       PRES   REMARKS
NASHVILLE      CLOUDY    74  53  48 S14G23    30.24F
CLARKSVILLE    CLOUDY    75  54  47 S14       30.19F
CROSSVILLE     SUNNY     66  48  52 S9G22     30.32F
$$

TNZ061-075-076-078-094-096-097-242000-
SOUTH MIDDLE TENNESSEE

CITY           SKY/WX    TMP DP  RH WIND       PRES   REMARKS
TULLAHOMA      MOSUNNY   70  48  46 S14       30.28F
WINCHESTER     MOSUNNY   72  54  53 S12       30.29F
MCMINNVILLE    SUNNY     73  54  49 S8        30.28F
COLUMBIA       MOSUNNY   73  55  53 S16       30.21F
SHELBYVILLE    PTSUNNY   73  55  53 SE16      30.26F
$$

TNZ017-018-042-046-047-242000-
NORTHEAST TENNESSEE

CITY           SKY/WX    TMP DP  RH WIND       PRES   REMARKS
TRI CITIES     CLOUDY    71  46  40 SW10      30.32F
$$

TNZ012-013-036-069-073-074-242000-
CENTRAL EAST TENNESSEE

CITY           SKY/WX    TMP DP  RH WIND       PRES   REMARKS
KNOXVILLE      CLOUDY    69  47  45 SW15      30.33F
OAK RIDGE      PTSUNNY   70  47  43 SW10G18   30.34F
GATLINBURG     PTSUNNY   72  45  37 CALM      30.31F
$$

TNZ083-085-099-242000-
SOUTHEAST TENNESSEE

CITY           SKY/WX    TMP DP  RH WIND       PRES   REMARKS
CHATTANOOGA    PTSUNNY   70  49  47 SE16G22   30.33F
$$

SKY/WX REPORTED AS FAIR MEANS FEW OR NO CLOUDS BELOW
12 THOUSAND FEET.





USA.gov is the U.S. government's official web portal to all federal, state and local government web resources and services.